Location: Br�znic
(45.9167°N, 22.6500°E)
Time: 20:53:57
(UTC+00:00)

Helios 1A Rocket - Pass Details

Date: 03 March 2021
Orbit: 563 x 585 km, 98.3° (Epoch: 13 April)

Event Time Altitude Azimuth Distance (km) Brightness Sun altitude
Rises 17:37:16 0° 169° (S) 2,767 6.2 -14.4°
Reaches altitude 10° 17:39:25 10° 172° (S) 1,871 5.4 -14.8°
Maximum altitude 17:43:27 73° 256° (WSW) 601 3.1 -15.5°
Drops below altitude 10° 17:47:30 10° 342° (NNW) 1,875 5.8 -16.2°
Sets 17:49:39 0° 345° (NNW) 2,774 6.7 -16.6°
